Location: Auckland
(36.8500°S, 174.7800°E)
Time: 09:03:31
(UTC+12:00)

ISS - Pass Details

Date: 23 March 2026
Orbit: 416 x 424 km, 51.6° (Epoch: 11 April)

Event Time Altitude Azimuth Distance (km) Brightness Sun altitude
Exits shadow 06:22:43 - 222° (SW) 1,580 -1.1 -13.4°
Maximum altitude 06:24:07 11° 198° (SSW) 1,470 -1.1 -13.2°
Drops below altitude 10° 06:25:04 10° 182° (S) 1,523 -0.8 -13.0°
Sets 06:28:40 0° 143° (SE) 2,394 0.8 -12.3°
